Dagsboro, DE DE USA current weather conditions

sailwx.info

Wind from 300 at 6 knots gusting 10

Air temperature 4.3° C
Dewpoint 0.0° C

Last reported at 2019-Nov-21 07:55 UTC.
Time now 2019-Nov-21 08:24 UTC

Location: N 38°33' W 075°14'.
View on Google Maps.

See reports from other nearby stations

  
Tides and Currents Weather Stations Pressure Air Temp Water Temp Dewpoint Dewpoint Depression Visibility Wind Speed Wind Dir Waves Ship Positions
date/time (UTC)wind fromknots sea level pressurealtimeterstation pressurevisibilityair tempwater tempwave heightnotes
2019-Nov-21 08:05 302 6 gusting 8 4.4
2019-Nov-21 08:00 300 7 gusting 9 4.4
2019-Nov-21 07:55 300 6 gusting 10 4.3
2019-Nov-21 07:50 300 7 gusting 8 4.3
2019-Nov-21 07:45 298 6 gusting 8 4.2
2019-Nov-21 07:40 305 5 gusting 7 4.1
2019-Nov-21 07:35 298 5 gusting 8 4.0
2019-Nov-21 07:30 308 3 gusting 6 4.1
2019-Nov-21 07:25 301 5 gusting 7 4.0
2019-Nov-21 07:20 304 5 gusting 6 4.0
2019-Nov-21 07:15 302 5 gusting 7 4.0
2019-Nov-21 07:10 299 5 gusting 7 4.0
2019-Nov-21 07:05 297 5 gusting 7 3.9
2019-Nov-21 07:00 293 5 gusting 7 3.8
2019-Nov-21 06:55 292 5 gusting 7 3.6
2019-Nov-21 06:50 295 4 gusting 6 3.4
2019-Nov-21 06:45 291 3 gusting 5 3.3
2019-Nov-21 06:40 293 2 gusting 4 3.4
2019-Nov-21 06:35 312 1 gusting 3 3.6
2019-Nov-21 06:30 309 2 gusting 4 3.7
2019-Nov-21 06:25 309 2 gusting 4 3.6
2019-Nov-21 06:20 347 0 gusting 1 3.7
2019-Nov-21 06:15 317 0 gusting 2 3.7
2019-Nov-21 06:10 329 0 gusting 2 4.0
2019-Nov-21 06:05 308 2 gusting 4 4.1
2019-Nov-21 06:00 309 3 gusting 4 4.0
2019-Nov-21 05:55 309 2 gusting 4 4.1
2019-Nov-21 05:50 330 1 gusting 4 4.1
2019-Nov-21 05:45 326 1 gusting 3 4.1
2019-Nov-21 05:40 310 2 gusting 5 4.1
2019-Nov-21 05:35 309 2 gusting 3 4.1
2019-Nov-21 05:30 319 1 gusting 4 4.1
2019-Nov-21 05:25 323 0 gusting 2 4.1
2019-Nov-21 05:20 349 1 gusting 2 4.2
2019-Nov-21 05:15 014 0 gusting 2 4.3
2019-Nov-21 05:10 356 1 gusting 3 4.5
2019-Nov-21 05:05 306 3 gusting 6 4.7
2019-Nov-21 05:00 307 5 gusting 6 4.8
2019-Nov-21 04:55 304 5 gusting 7 4.8
2019-Nov-21 04:50 300 6 gusting 8 4.6
2019-Nov-21 04:45 297 5 gusting 7 4.4
2019-Nov-21 04:40 303 4 gusting 6 4.2
2019-Nov-21 04:35 312 3 gusting 4 4.1
2019-Nov-21 04:30 314 2 gusting 4 4.2
2019-Nov-21 04:25 305 4 gusting 5 4.2
2019-Nov-21 04:20 303 4 gusting 5 4.2
2019-Nov-21 04:15 319 2 gusting 4 4.1
2019-Nov-21 04:10 309 2 gusting 4 4.1
2019-Nov-21 04:05 305 2 gusting 3 4.1
2019-Nov-21 04:00 289 2 gusting 3 4.3
2019-Nov-21 03:55 298 3 gusting 3 4.4
2019-Nov-21 03:50 296 2 gusting 3 4.3
2019-Nov-21 03:45 290 3 gusting 4 4.5
2019-Nov-21 03:40 291 3 gusting 5 4.6
2019-Nov-21 03:35 288 4 gusting 5 4.5
2019-Nov-21 03:30 282 3 gusting 4 4.1
2019-Nov-21 03:25 276 3 gusting 4 4.3
2019-Nov-21 03:20 279 2 gusting 3 4.6
2019-Nov-21 03:15 278 2 gusting 2 4.5
2019-Nov-21 03:10 273 2 gusting 4 4.9
2019-Nov-21 03:05 280 2 gusting 2 5.0
2019-Nov-21 03:00 285 2 gusting 3 5.3
2019-Nov-21 02:55 286 2 gusting 3 5.3
2019-Nov-21 02:50 289 2 gusting 3 5.4
2019-Nov-21 02:45 288 3 gusting 4 5.3
2019-Nov-21 02:40 288 2 gusting 4 5.3
2019-Nov-21 02:35 297 3 gusting 4 5.5
2019-Nov-21 02:30 304 3 gusting 5 5.5
2019-Nov-21 02:25 292 3 gusting 4 5.6
2019-Nov-21 02:20 296 3 gusting 5 5.8
2019-Nov-21 02:15 293 3 gusting 4 5.9
2019-Nov-21 02:10 295 3 gusting 4 6.1
2019-Nov-21 02:05 293 4 gusting 5 6.0
2019-Nov-21 02:00 291 4 gusting 5 6.3
2019-Nov-21 01:55 294 4 gusting 6 6.3
2019-Nov-21 01:50 298 4 gusting 8 6.4
2019-Nov-21 01:45 296 4 gusting 5 6.3
2019-Nov-21 01:40 299 4 gusting 7 6.5
2019-Nov-21 01:35 299 5 gusting 7 6.6
2019-Nov-21 01:30 296 4 gusting 7 6.6
2019-Nov-21 01:25 303 4 gusting 6 6.6
2019-Nov-21 01:20 300 4 gusting 6 6.7
2019-Nov-21 01:15 302 4 gusting 5 6.7
2019-Nov-21 01:10 303 4 gusting 5 6.7
2019-Nov-21 01:05 302 4 gusting 5 6.8
2019-Nov-21 01:00 303 4 gusting 5 6.9
2019-Nov-21 00:55 302 4 gusting 5 7.0
2019-Nov-21 00:50 302 4 gusting 5 6.9
2019-Nov-21 00:45 300 4 gusting 5 7.1
2019-Nov-21 00:40 303 4 gusting 5 7.3
2019-Nov-21 00:35 303 4 gusting 6 7.3
2019-Nov-21 00:30 301 3 gusting 7 7.5
2019-Nov-21 00:25 289 4 gusting 7 7.7
2019-Nov-21 00:20 289 4 gusting 7 7.6
2019-Nov-21 00:15 288 4 gusting 7 7.7
2019-Nov-21 00:10 288 4 gusting 6 7.9
2019-Nov-21 00:05 299 4 gusting 5 8.0
2019-Nov-21 00:00 295 4 gusting 7 8.1
2019-Nov-20 23:55 291 4 gusting 7 8.4
2019-Nov-20 23:50 290 5 gusting 6 8.6
2019-Nov-20 23:45 287 4 gusting 6 8.9
2019-Nov-20 23:40 295 4 gusting 6 9.0
2019-Nov-20 23:35 302 4 gusting 6 8.9
2019-Nov-20 23:30 306 4 gusting 7 8.9
2019-Nov-20 23:25 308 4 gusting 7 8.8
2019-Nov-20 23:20 307 4 gusting 6 8.7
2019-Nov-20 23:15 310 4 gusting 6 8.8
2019-Nov-20 23:10 305 5 gusting 8 8.8
2019-Nov-20 23:05 307 5 gusting 7 9.1
2019-Nov-20 23:00 312 4 gusting 8 9.3
2019-Nov-20 22:55 310 6 gusting 10 9.3
2019-Nov-20 22:50 311 4 gusting 8 9.4
2019-Nov-20 22:45 311 5 gusting 10 9.5
2019-Nov-20 22:40 315 5 gusting 9 9.5
2019-Nov-20 22:35 310 6 gusting 9 9.6
2019-Nov-20 22:30 312 5 gusting 12 9.6
2019-Nov-20 22:25 311 5 gusting 11 9.5
2019-Nov-20 22:20 315 6 gusting 12 9.6
2019-Nov-20 22:15 314 7 gusting 11 9.6
2019-Nov-20 22:10 311 6 gusting 12 9.6
2019-Nov-20 22:05 311 8 gusting 16 9.5
2019-Nov-20 22:00 316 6 gusting 11 9.5
2019-Nov-20 21:55 319 5 gusting 11 9.3
2019-Nov-20 21:50 308 8 gusting 14 9.4
2019-Nov-20 21:45 308 6 gusting 12 9.1
2019-Nov-20 21:40 310 6 gusting 11 9.3
2019-Nov-20 21:35 311 6 gusting 11 9.5
2019-Nov-20 21:30 311 6 gusting 12 9.7
2019-Nov-20 21:25 313 6 gusting 13 9.6
2019-Nov-20 21:20 314 4 gusting 12 9.6
2019-Nov-20 21:15 315 5 gusting 10 9.8
2019-Nov-20 21:10 319 4 gusting 9 9.8
2019-Nov-20 21:05 320 6 gusting 13 10.0
2019-Nov-20 21:00 313 7 gusting 14 10.2
2019-Nov-20 20:55 312 8 gusting 15 10.4
2019-Nov-20 20:50 324 8 gusting 19 10.5
2019-Nov-20 20:45 315 6 gusting 13 10.7
2019-Nov-20 20:40 315 9 gusting 15 10.6
2019-Nov-20 20:35 315 8 gusting 16 10.5
2019-Nov-20 20:30 312 6 gusting 12 10.5
2019-Nov-20 20:25 314 6 gusting 11 10.6
2019-Nov-20 20:20 322 7 gusting 13 10.7
2019-Nov-20 20:15 315 5 gusting 14 11.0
2019-Nov-20 20:10 311 6 gusting 11 11.3
2019-Nov-20 20:05 307 8 gusting 15 11.3
2019-Nov-20 20:00 317 6 gusting 11 11.1
2019-Nov-20 19:55 307 11 gusting 17 11.0
2019-Nov-20 19:50 313 9 gusting 14 10.8
2019-Nov-20 19:45 308 8 gusting 13 10.5
2019-Nov-20 19:40 310 9 gusting 14 10.5
2019-Nov-20 19:35 316 7 gusting 16 10.6
2019-Nov-20 19:30 314 9 gusting 19 11.0
2019-Nov-20 19:25 329 4 gusting 7 11.2
2019-Nov-20 19:20 325 5 gusting 16 11.2
2019-Nov-20 19:15 322 6 gusting 16 11.1
2019-Nov-20 19:10 325 5 gusting 10 11.5
2019-Nov-20 19:05 322 6 gusting 16 11.3
2019-Nov-20 19:00 327 5 gusting 11 11.3
2019-Nov-20 18:55 315 5 gusting 15 10.9
2019-Nov-20 18:50 324 6 gusting 12 10.4
2019-Nov-20 18:45 319 6 gusting 14 10.5
2019-Nov-20 18:40 339 4 gusting 10 10.6
2019-Nov-20 18:35 331 4 gusting 9 10.5
2019-Nov-20 18:30 333 4 gusting 10 10.5
2019-Nov-20 18:25 323 6 gusting 15 10.6
2019-Nov-20 18:20 328 5 gusting 9 10.5
2019-Nov-20 18:15 321 5 gusting 12 11.4
2019-Nov-20 18:10 311 7 gusting 14 10.8
2019-Nov-20 18:05 302 10 gusting 16 10.6
2019-Nov-20 18:00 310 9 gusting 18 10.9
2019-Nov-20 17:55 318 5 gusting 12 10.7
2019-Nov-20 17:50 322 7 gusting 13 10.7
2019-Nov-20 17:45 320 6 gusting 14 11.1
2019-Nov-20 17:40 305 9 gusting 17 10.6
2019-Nov-20 17:35 304 11 gusting 19 10.6
2019-Nov-20 17:30 295 12 gusting 17 10.5
2019-Nov-20 17:25 307 10 gusting 16 10.5
2019-Nov-20 17:20 303 12 gusting 17 10.5
2019-Nov-20 17:15 310 7 gusting 12 10.3
2019-Nov-20 17:10 313 8 gusting 14 10.0
2019-Nov-20 17:05 309 9 gusting 16 9.9
2019-Nov-20 17:00 312 8 gusting 15 10.1
2019-Nov-20 16:55 304 9 gusting 15 10.1
2019-Nov-20 16:50 310 10 gusting 18 10.0
2019-Nov-20 16:45 309 11 gusting 19 10.5
2019-Nov-20 16:40 314 11 gusting 17 10.3
2019-Nov-20 16:35 311 8 gusting 14 10.4
2019-Nov-20 16:30 293 8 gusting 14 10.1
2019-Nov-20 16:25 300 7 gusting 12 10.3
2019-Nov-20 16:20 303 9 gusting 13 10.1
2019-Nov-20 16:15 299 9 gusting 15 9.8
2019-Nov-20 16:10 310 9 gusting 14 9.5
2019-Nov-20 16:05 312 7 gusting 15 9.3
2019-Nov-20 16:00 298 9 gusting 13 9.4
2019-Nov-20 15:55 301 9 gusting 13 9.2
2019-Nov-20 15:50 310 7 gusting 11 9.1
2019-Nov-20 15:45 303 6 gusting 12 9.3
2019-Nov-20 15:40 313 6 gusting 10 9.0
2019-Nov-20 15:35 309 8 gusting 13 8.8
2019-Nov-20 15:30 314 5 gusting 13 8.8
2019-Nov-20 15:25 305 6 gusting 10 8.8
2019-Nov-20 15:20 309 4 gusting 7 8.8
2019-Nov-20 15:15 314 3 gusting 8 8.6
2019-Nov-20 15:10 311 4 gusting 8 8.6
2019-Nov-20 15:05 312 4 gusting 9 8.5
2019-Nov-20 15:00 311 5 gusting 10 8.6
2019-Nov-20 14:55 310 6 gusting 15 8.6
2019-Nov-20 14:50 328 4 gusting 9 8.7
2019-Nov-20 14:45 314 5 gusting 9 8.5
2019-Nov-20 14:40 327 3 gusting 6 8.7
2019-Nov-20 14:35 323 2 gusting 8 8.1
2019-Nov-20 14:30 310 4 gusting 7 8.0
2019-Nov-20 14:25 308 3 gusting 8 7.9
2019-Nov-20 14:20 317 4 gusting 8 7.8
2019-Nov-20 14:15 309 5 gusting 8 7.7
2019-Nov-20 14:10 312 3 gusting 6 7.4
2019-Nov-20 14:05 314 4 gusting 8 7.3
2019-Nov-20 14:00 312 5 gusting 9 7.2
2019-Nov-20 13:55 308 4 gusting 8 7.0
2019-Nov-20 13:50 313 3 gusting 8 6.9
2019-Nov-20 13:45 313 4 gusting 7 6.7
2019-Nov-20 13:40 313 3 gusting 6 6.6
2019-Nov-20 13:35 316 3 gusting 6 6.6
2019-Nov-20 13:30 312 2 gusting 5 6.5
2019-Nov-20 13:25 311 3 gusting 4 6.4
2019-Nov-20 13:20 314 2 gusting 5 6.4
2019-Nov-20 13:15 318 2 gusting 5 6.4
2019-Nov-20 13:10 320 2 gusting 6 6.3
2019-Nov-20 13:05 327 1 gusting 4 6.2
2019-Nov-20 13:00 315 2 gusting 3 6.2
2019-Nov-20 12:55 306 3 gusting 5 6.1
2019-Nov-20 12:50 307 3 gusting 4 6.0
2019-Nov-20 12:45 311 2 gusting 4 5.9
2019-Nov-20 12:40 310 1 gusting 2 5.8
2019-Nov-20 12:35 323 0 gusting 1 5.7
2019-Nov-20 12:30 312 0 gusting 1 5.7
2019-Nov-20 12:25 323 0 gusting 0 5.6
2019-Nov-20 12:20 307 0 gusting 1 5.5
2019-Nov-20 12:15 310 0 gusting 1 5.5
2019-Nov-20 12:10 317 0 gusting 1 5.5
2019-Nov-20 12:05 311 0 gusting 1 5.5
2019-Nov-20 12:00 309 0 gusting 1 5.5
2019-Nov-20 11:55 306 1 gusting 2 5.4
2019-Nov-20 11:50 301 0 gusting 1 5.3
2019-Nov-20 11:45 5.3
2019-Nov-20 11:40 5.3
2019-Nov-20 11:35 312 0 gusting 0 5.3
2019-Nov-20 11:30 309 0 gusting 0 5.3
2019-Nov-20 11:25 306 1 gusting 2 5.3
2019-Nov-20 11:20 311 0 gusting 1 5.2
2019-Nov-20 11:15 309 0 gusting 0 5.2
2019-Nov-20 11:10 300 1 gusting 1 5.2
2019-Nov-20 11:05 294 0 gusting 1 5.2
2019-Nov-20 11:00 294 0 gusting 1 5.2
2019-Nov-20 10:55 294 1 gusting 1 5.2
2019-Nov-20 10:50 294 0 gusting 1 5.2
2019-Nov-20 10:45 5.3
2019-Nov-20 10:40 5.4
2019-Nov-20 10:35 5.3
2019-Nov-20 10:30 5.3
2019-Nov-20 10:25 5.4
2019-Nov-20 10:20 5.4
2019-Nov-20 10:15 5.4
2019-Nov-20 10:10 5.5
2019-Nov-20 10:05 5.5
2019-Nov-20 10:00 5.5
2019-Nov-20 09:55 5.5
2019-Nov-20 09:50 5.5
2019-Nov-20 09:45 5.6
2019-Nov-20 09:40 344 0 gusting 0 5.6
2019-Nov-20 09:35 304 0 gusting 2 5.6
2019-Nov-20 09:30 124 0 gusting 0 5.6
2019-Nov-20 09:25 5.5
2019-Nov-20 09:20 294 0 gusting 0 5.5
2019-Nov-20 09:15 151 0 gusting 0 5.5
2019-Nov-20 09:10 296 0 gusting 2 5.4
2019-Nov-20 09:05 291 1 gusting 2 5.4
2019-Nov-20 09:00 282 1 gusting 1 5.3
2019-Nov-20 08:55 5.3
2019-Nov-20 08:50 299 0 gusting 1 5.3
2019-Nov-20 08:45 296 0 gusting 1 5.3
2019-Nov-20 08:40 288 0 gusting 0 5.2
2019-Nov-20 08:35 287 0 gusting 1 5.1
2019-Nov-20 08:30 287 0 gusting 1 5.2
2019-Nov-20 08:25 287 0 gusting 1 5.2
2019-Nov-20 08:20 286 1 gusting 1 5.0
2019-Nov-20 08:15 296 0 gusting 1 5.0
2019-Nov-20 08:10 5.1
2019-Nov-20 08:05 5.1
2019-Nov-20 08:00 298 0 gusting 0 5.3
2019-Nov-20 07:55 308 1 gusting 1 5.3
2019-Nov-20 07:50 304 1 gusting 1 5.2
2019-Nov-20 07:45 279 1 gusting 1 5.2
2019-Nov-20 07:40 257 1 gusting 1 5.4
2019-Nov-20 07:35 249 1 gusting 2 5.4
2019-Nov-20 07:30 252 1 gusting 2 5.3
2019-Nov-20 07:25 275 0 gusting 1 5.3
2019-Nov-20 07:20 345 0 gusting 1 5.4
2019-Nov-20 07:15 015 0 gusting 1 5.4
2019-Nov-20 07:10 333 0 gusting 2 5.4
2019-Nov-20 07:05 325 0 gusting 1 5.3
2019-Nov-20 07:00 014 0 gusting 0 5.4
2019-Nov-20 06:55 014 0 gusting 1 5.4
2019-Nov-20 06:50 016 0 gusting 1 5.3
2019-Nov-20 06:45 316 1 gusting 1 5.2
2019-Nov-20 06:40 319 0 gusting 1 5.2
2019-Nov-20 06:35 319 0 gusting 0 5.2
2019-Nov-20 06:30 319 0 gusting 0 5.3
2019-Nov-20 06:25 5.5
2019-Nov-20 06:20 5.5
2019-Nov-20 06:15 319 0 gusting 0 5.5
2019-Nov-20 06:10 290 0 gusting 1 5.5
2019-Nov-20 06:05 282 0 gusting 1 5.5
2019-Nov-20 06:00 282 1 gusting 1 5.7
2019-Nov-20 05:55 310 0 gusting 1 5.7
2019-Nov-20 05:50 5.7
2019-Nov-20 05:45 337 1 gusting 1 5.7
2019-Nov-20 05:40 312 1 gusting 1 5.6
2019-Nov-20 05:35 294 0 gusting 1 5.5
2019-Nov-20 05:30 285 0 gusting 0 5.5
2019-Nov-20 05:25 5.4
2019-Nov-20 05:20 320 0 gusting 0 5.5
2019-Nov-20 05:15 320 0 gusting 0 5.5
2019-Nov-20 05:10 320 0 gusting 0 5.6
2019-Nov-20 05:05 320 0 gusting 0 5.5
2019-Nov-20 05:00 320 0 gusting 0 5.4
2019-Nov-20 04:55 5.7
2019-Nov-20 04:50 320 0 gusting 0 5.8
2019-Nov-20 04:45 320 0 gusting 0 6.0
2019-Nov-20 04:40 6.0
2019-Nov-20 04:35 321 0 gusting 0 6.1
2019-Nov-20 04:30 019 0 gusting 1 6.1
2019-Nov-20 04:25 037 0 gusting 1 6.0
2019-Nov-20 04:20 037 0 gusting 0 6.0
2019-Nov-20 04:15 032 0 gusting 1 5.9
2019-Nov-20 04:10 5.8
2019-Nov-20 04:05 5.9
2019-Nov-20 04:00 287 0 gusting 0 6.0
2019-Nov-20 03:55 289 0 gusting 0 6.0
2019-Nov-20 03:50 290 0 gusting 0 5.9
2019-Nov-20 03:45 290 0 gusting 0 5.9
2019-Nov-20 03:40 284 0 gusting 0 5.8
2019-Nov-20 03:35 5.7
2019-Nov-20 03:30 5.7
2019-Nov-20 03:25 5.7
2019-Nov-20 03:20 265 0 gusting 1 5.9
2019-Nov-20 03:15 285 1 gusting 1 6.1
2019-Nov-20 03:10 295 1 gusting 1 6.2
2019-Nov-20 03:05 285 0 gusting 1 6.0
2019-Nov-20 03:00 256 0 gusting 1 6.0
2019-Nov-20 02:55 260 1 gusting 1 6.3
2019-Nov-20 02:50 301 0 gusting 1 6.3
2019-Nov-20 02:45 316 0 gusting 0 6.3
2019-Nov-20 02:40 301 1 gusting 1 6.2
2019-Nov-20 02:35 297 0 gusting 0 6.3
2019-Nov-20 02:30 6.4
2019-Nov-20 02:25 6.5
2019-Nov-20 02:20 6.5
2019-Nov-20 02:15 294 0 gusting 1 6.4
2019-Nov-20 02:10 157 0 gusting 1 6.4
2019-Nov-20 02:05 121 0 gusting 0 6.5
2019-Nov-20 02:00 6.4
2019-Nov-20 01:55 6.6
2019-Nov-20 01:50 6.7
2019-Nov-20 01:45 6.7
2019-Nov-20 01:40 6.8
2019-Nov-20 01:35 6.8
2019-Nov-20 01:30 121 0 gusting 0 6.9
2019-Nov-20 01:25 121 0 gusting 0 6.8
2019-Nov-20 01:20 6.7
2019-Nov-20 01:15 121 0 gusting 0 6.8
2019-Nov-20 01:10 6.7
2019-Nov-20 01:05 6.8
2019-Nov-20 01:00 6.9
2019-Nov-20 00:55 7.0
2019-Nov-20 00:50 6.9
2019-Nov-20 00:45 7.0
2019-Nov-20 00:40 7.0
2019-Nov-20 00:35 121 0 gusting 0 7.0
2019-Nov-20 00:30 121 0 gusting 0 7.2
2019-Nov-20 00:25 121 0 gusting 0 7.4
2019-Nov-20 00:20 7.6
2019-Nov-20 00:15 066 0 gusting 0 7.7
2019-Nov-20 00:10 063 0 gusting 0 7.6
2019-Nov-20 00:05 091 0 gusting 0 7.6
2019-Nov-20 00:00 7.5
2019-Nov-19 23:55 076 0 gusting 1 7.4
2019-Nov-19 23:50 094 0 gusting 1 7.1
2019-Nov-19 23:45 157 1 gusting 2 7.0
2019-Nov-19 23:40 147 0 gusting 2 7.1
2019-Nov-19 23:35 137 1 gusting 2 7.3
2019-Nov-19 23:30 124 0 gusting 1 7.2
2019-Nov-19 23:25 127 0 gusting 1 7.2
2019-Nov-19 23:20 155 1 gusting 2 7.5
2019-Nov-19 23:15 166 2 gusting 2 7.6
2019-Nov-19 23:10 138 0 gusting 1 7.8
2019-Nov-19 23:05 113 0 gusting 0 8.0
2019-Nov-19 23:00 117 0 gusting 1 8.0
2019-Nov-19 22:55 154 0 gusting 0 8.0
2019-Nov-19 22:50 159 0 gusting 1 8.1
2019-Nov-19 22:45 353 0 gusting 0 8.4
2019-Nov-19 22:40 346 0 gusting 1 8.3
2019-Nov-19 22:35 330 1 gusting 2 8.3
2019-Nov-19 22:30 299 1 gusting 1 8.2
2019-Nov-19 22:25 230 0 gusting 1 8.1
2019-Nov-19 22:20 155 0 gusting 1 8.3
2019-Nov-19 22:15 184 0 gusting 0 8.4
2019-Nov-19 22:10 8.6
2019-Nov-19 22:05 257 0 gusting 0 8.7
2019-Nov-19 22:00 256 0 gusting 0 8.9
2019-Nov-19 21:55 231 0 gusting 1 9.0
2019-Nov-19 21:50 230 1 gusting 1 9.0
2019-Nov-19 21:45 230 0 gusting 0 9.0
2019-Nov-19 21:40 9.1
2019-Nov-19 21:35 231 0 gusting 0 9.4
2019-Nov-19 21:30 232 0 gusting 0 9.7
2019-Nov-19 21:25 9.9
2019-Nov-19 21:20 10.1
2019-Nov-19 21:15 249 0 gusting 0 10.3
2019-Nov-19 21:10 249 0 gusting 1 10.3
2019-Nov-19 21:05 238 0 gusting 1 10.4
2019-Nov-19 21:00 200 0 gusting 0 10.4
2019-Nov-19 20:55 214 0 gusting 1 10.4
2019-Nov-19 20:50 222 1 gusting 2 10.5
2019-Nov-19 20:45 185 1 gusting 2 10.5
2019-Nov-19 20:40 191 2 gusting 3 10.5
2019-Nov-19 20:35 204 1 gusting 2 10.5
2019-Nov-19 20:30 210 1 gusting 2 10.6
2019-Nov-19 20:25 237 1 gusting 2 10.6
2019-Nov-19 20:20 224 2 gusting 3 10.7
2019-Nov-19 20:15 243 2 gusting 4 10.8
2019-Nov-19 20:10 259 1 gusting 3 10.7
2019-Nov-19 20:05 284 2 gusting 3 10.6
2019-Nov-19 20:00 269 3 gusting 4 10.6
2019-Nov-19 19:55 247 2 gusting 4 10.7
2019-Nov-19 19:50 266 1 gusting 2 10.5
2019-Nov-19 19:45 270 3 gusting 5 10.5
2019-Nov-19 19:40 265 4 gusting 6 10.5
2019-Nov-19 19:35 268 4 gusting 6 10.6
2019-Nov-19 19:30 273 3 gusting 5 10.6
2019-Nov-19 19:25 281 3 gusting 5 10.4
2019-Nov-19 19:20 291 4 gusting 6 10.4
2019-Nov-19 19:15 278 4 gusting 7 10.4
2019-Nov-19 19:10 273 5 gusting 7 10.6
2019-Nov-19 19:05 255 5 gusting 7 10.8
2019-Nov-19 19:00 265 4 gusting 6 10.5
2019-Nov-19 18:55 289 3 gusting 5 10.5
2019-Nov-19 18:50 301 4 gusting 6 10.6
2019-Nov-19 18:45 304 3 gusting 6 10.3
2019-Nov-19 18:40 316 2 gusting 5 10.3
2019-Nov-19 18:35 301 4 gusting 7 10.5
2019-Nov-19 18:30 286 3 gusting 6 10.4
2019-Nov-19 18:25 291 4 gusting 6 10.3
2019-Nov-19 18:20 294 6 gusting 8 10.3
2019-Nov-19 18:15 313 3 gusting 7 10.5
2019-Nov-19 18:10 302 5 gusting 8 10.5
2019-Nov-19 18:05 313 4 gusting 8 10.6
2019-Nov-19 18:00 307 5 gusting 8 10.4
2019-Nov-19 17:55 304 5 gusting 9 10.5
2019-Nov-19 17:50 308 3 gusting 8 10.4
2019-Nov-19 17:45 296 5 gusting 9 10.4
2019-Nov-19 17:40 300 7 gusting 11 10.8
2019-Nov-19 17:35 288 4 gusting 10 10.9
2019-Nov-19 17:30 253 5 gusting 7 10.6
2019-Nov-19 17:25 258 6 gusting 9 10.6
2019-Nov-19 17:20 273 6 gusting 9 10.5
2019-Nov-19 17:15 263 6 gusting 8 10.4
2019-Nov-19 17:10 251 5 gusting 10 10.4
2019-Nov-19 17:05 256 6 gusting 9 10.3
2019-Nov-19 17:00 244 5 gusting 10 10.1
2019-Nov-19 16:55 244 4 gusting 6 9.6
2019-Nov-19 16:50 266 3 gusting 5 9.3
2019-Nov-19 16:45 275 4 gusting 6 9.1
2019-Nov-19 16:40 270 4 gusting 6 9.1
2019-Nov-19 16:35 277 4 gusting 6 9.0
2019-Nov-19 16:30 277 4 gusting 8 9.0
2019-Nov-19 16:25 266 5 gusting 9 9.1
2019-Nov-19 16:20 262 4 gusting 7 9.1
2019-Nov-19 16:15 274 4 gusting 6 9.1
2019-Nov-19 16:10 283 6 gusting 8 8.9
2019-Nov-19 16:05 283 4 gusting 7 8.8
2019-Nov-19 16:00 278 5 gusting 7 8.8
2019-Nov-19 15:55 301 6 gusting 8 8.9
2019-Nov-19 15:50 286 4 gusting 6 8.8
2019-Nov-19 15:45 282 4 gusting 6 8.6
2019-Nov-19 15:40 261 2 gusting 4 8.5
2019-Nov-19 15:35 255 5 gusting 8 8.4
2019-Nov-19 15:30 246 6 gusting 11 8.2
2019-Nov-19 15:25 253 4 gusting 8 8.1
2019-Nov-19 15:20 249 3 gusting 6 7.9
2019-Nov-19 15:15 241 3 gusting 6 7.8
2019-Nov-19 15:10 252 4 gusting 7 7.7
2019-Nov-19 15:05 252 4 gusting 6 7.7
2019-Nov-19 15:00 248 4 gusting 7 7.7
2019-Nov-19 14:55 243 3 gusting 4 7.6
2019-Nov-19 14:50 267 3 gusting 5 7.6
2019-Nov-19 14:45 279 3 gusting 4 7.5
2019-Nov-19 14:40 281 4 gusting 6 7.5
2019-Nov-19 14:35 268 4 gusting 5 7.4
2019-Nov-19 14:30 251 4 gusting 7 7.4
2019-Nov-19 14:25 258 4 gusting 7 7.3
2019-Nov-19 14:20 269 4 gusting 6 7.4
2019-Nov-19 14:15 281 5 gusting 8 7.4
2019-Nov-19 14:10 292 4 gusting 6 7.3
2019-Nov-19 14:05 269 5 gusting 8 7.3
2019-Nov-19 14:00 265 5 gusting 7 7.2
2019-Nov-19 13:55 259 5 gusting 7 7.2
2019-Nov-19 13:50 260 5 gusting 6 7.1
2019-Nov-19 13:45 263 4 gusting 6 7.1
2019-Nov-19 13:40 278 5 gusting 7 7.0
2019-Nov-19 13:35 277 5 gusting 7 7.0
2019-Nov-19 13:30 284 4 gusting 7 7.0
2019-Nov-19 13:25 278 4 gusting 7 6.9
2019-Nov-19 13:20 285 4 gusting 7 6.9
2019-Nov-19 13:15 276 4 gusting 7 6.8
2019-Nov-19 13:10 261 3 gusting 5 6.8
2019-Nov-19 13:05 259 2 gusting 4 6.7
2019-Nov-19 13:00 267 3 gusting 5 6.6
2019-Nov-19 12:55 273 3 gusting 5 6.5
2019-Nov-19 12:50 277 3 gusting 4 6.4
2019-Nov-19 12:45 289 3 gusting 5 6.3
2019-Nov-19 12:40 289 4 gusting 6 6.3
2019-Nov-19 12:35 289 3 gusting 4 6.1
2019-Nov-19 12:30 285 3 gusting 4 6.0
2019-Nov-19 12:25 260 2 gusting 3 6.0
2019-Nov-19 12:20 256 3 gusting 4 6.0
2019-Nov-19 12:15 214 2 gusting 4 6.0
2019-Nov-19 12:10 206 2 gusting 4 6.0
2019-Nov-19 12:05 216 2 gusting 3 6.0
2019-Nov-19 12:00 229 2 gusting 3 6.0
2019-Nov-19 11:55 243 2 gusting 3 6.0
2019-Nov-19 11:50 265 3 gusting 4 6.0
2019-Nov-19 11:45 278 3 gusting 4 6.1
2019-Nov-19 11:40 288 2 gusting 3 6.1
2019-Nov-19 11:35 269 1 gusting 2 6.1
2019-Nov-19 11:30 248 1 gusting 2 6.2
2019-Nov-19 11:25 244 2 gusting 3 6.2
2019-Nov-19 11:20 236 2 gusting 4 6.2
2019-Nov-19 11:15 220 1 gusting 3 6.2
2019-Nov-19 11:10 224 2 gusting 4 6.1
2019-Nov-19 11:05 234 1 gusting 2 6.0
2019-Nov-19 11:00 234 2 gusting 3 6.1
2019-Nov-19 10:55 221 2 gusting 4 6.2
2019-Nov-19 10:50 234 1 gusting 3 6.2
2019-Nov-19 10:45 237 2 gusting 2 6.2
2019-Nov-19 10:40 234 2 gusting 4 6.2
2019-Nov-19 10:35 221 3 gusting 4 6.2
2019-Nov-19 10:30 219 3 gusting 6 6.2
2019-Nov-19 10:25 204 2 gusting 4 6.1
2019-Nov-19 10:20 227 1 gusting 3 6.0
2019-Nov-19 10:15 264 1 gusting 1 5.9
2019-Nov-19 10:10 213 1 gusting 2 5.8
2019-Nov-19 10:05 193 1 gusting 2 5.9
2019-Nov-19 10:00 191 1 gusting 2 5.9
2019-Nov-19 09:55 201 1 gusting 2 6.1
2019-Nov-19 09:50 208 2 gusting 2 6.1
2019-Nov-19 09:45 253 1 gusting 2 6.1
2019-Nov-19 09:40 274 2 gusting 3 6.2
2019-Nov-19 09:35 279 2 gusting 2 6.3
2019-Nov-19 09:30 269 1 gusting 2 6.3
2019-Nov-19 09:25 271 1 gusting 3 6.4
2019-Nov-19 09:20 278 2 gusting 2 6.4
2019-Nov-19 09:15 267 1 gusting 2 6.4
2019-Nov-19 09:10 267 1 gusting 2 6.4
2019-Nov-19 09:05 261 2 gusting 3 6.4
2019-Nov-19 09:00 249 1 gusting 2 6.4
2019-Nov-19 08:55 249 2 gusting 4 6.4
2019-Nov-19 08:50 247 2 gusting 5 6.4
2019-Nov-19 08:45 253 2 gusting 3 6.4
2019-Nov-19 08:40 255 2 gusting 4 6.4
2019-Nov-19 08:35 248 1 gusting 3 6.4
2019-Nov-19 08:30 234 2 gusting 4 6.4
2019-Nov-19 08:25 239 2 gusting 5 6.4
2019-Nov-19 08:20 235 2 gusting 3 6.3
2019-Nov-19 08:15 254 3 gusting 4 6.3
2019-Nov-19 08:10 261 2 gusting 3 6.3
2019-Nov-19 08:05 255 2 gusting 4 6.3
2019-Nov-19 08:00 231 2 gusting 4 6.3